Regional Weather Roundup
Issued by NWS Sterling, VA

Home | Current Version | Previous Version | Graphics & Text | Print | Product List | Glossary On
Versions: 1 2 3 4 5 6 7 8 9 10 11 12 13 14 15 16 17 18 19 20 21 22 23 24 25 26 27 28 29 30 31 32 33 34 35 36 37 38 39 40 41 42 43 44 45 46 47 48 49 50
978
ASUS41 KLWX 141510
RWRLWX

REGIONAL WEATHER ROUNDUP
NATIONAL WEATHER SERVICE BALTIMORE MD/WASHINGTON DC
1000 AM EST SUN FEB 14 2016

Note: "FAIR" indicates few or no clouds below 12,000 feet
with no significant weather and/or obstructions to visibility.
 TC=TEMPERATURE CELSIUS

 * =Non NWS site. Station does not report precipitation (e.g. rain,
    snow, etc.), thunder, or fog.

DCZ001-MDZ009-015-VAZ040>042-051-053>054-141600-
WASHINGTON METRO

CITY           SKY/WX    TMP DP  RH WIND       PRES   REMARKS
WASHINGTON NAT FAIR      19  -1  41 NW10      30.59F WCI   7
DULLES         FAIR      17  -3  41 NW10      30.56F WCI   5
ANDREWS AFB    SUNNY     17  -3  41 NW10      30.55S WCI   5
FT BELVOIR     FAIR      18  -4  38 VRB6      30.59S
QUANTICO       FAIR      21  -2  36 N9G17     30.61S WCI  11
COLLEGE PARK*  FAIR      19  -2  38 N3        30.57F
LEESBURG*      FAIR      19   3  49 N7        30.57R
MANASSAS*      SUNNY     19   1  45 NW3       30.58S
GAITHERSBURG*  SUNNY     14   0  52 NW9G17    30.57S WCI   2

$$

MDZ006>007-011-014-141600-
BALTIMORE METRO

CITY           SKY/WX    TMP DP  RH WIND       PRES   REMARKS
BWI AIRPORT    MOSUNNY   17  -3  41 NW8       30.56F WCI   7
MD SCIENCE CTR   N/A     17  -4  39 MISG      30.62R
MARTIN STATE   MOSUNNY   18   0  45 NW9G18    30.59S WCI   6
ANNAPOLIS      SUNNY     17   3  54 NW10      30.57F WCI   5
FORT MEADE*    SUNNY     18   0  45 N8        30.59F WCI   7

$$

MDZ012-015-019>023-141600-
MARYLAND EASTERN SHORE

CITY           SKY/WX    TMP DP  RH WIND       PRES   REMARKS
OCEAN CITY     SUNNY     18  -5  36 NW18G25   30.54F WCI   2
SALISBURY      SUNNY     19  -3  38 N14       30.54F WCI   6
BAY BRIDGE AP*   N/A     19  -4  35 NW7       30.57F

$$

MDZ017>025-141600-
SOUTHERN MARYLAND

CITY           SKY/WX    TMP DP  RH WIND       PRES   REMARKS
PATUXENT RIVER MOSUNNY   19  -4  36 N20       30.57S WCI   3
ST INIGOES     SUNNY     18  -3  39 N12G21    30.57S WCI   5
LEONARDTOWN*   SUNNY     19  -2  38 MISG        N/A

$$

MDZ003>005-141600-
NORTH CENTRAL MARYLAND

CITY           SKY/WX    TMP DP  RH WIND       PRES   REMARKS
FREDERICK*     MOSUNNY   16   3  57 W7        30.59R
HAGERSTOWN APT MOSUNNY   12  -2  53 W6        30.51S
WESTMINSTER*   MOSUNNY   10   1  67 W6        30.49S

$$

MDZ501>502-141600-
WESTERN MARYLAND

CITY           SKY/WX    TMP DP  RH WIND       PRES   REMARKS
OAKLAND*       SUNNY      1   0  92 CALM      30.26R
CUMBERLAND*    SUNNY     18   0  45 CALM      30.55R

$$

VAZ025>031-141600-
SHENANDOAH VALLEY

CITY           SKY/WX    TMP DP  RH WIND       PRES   REMARKS
WINCHESTER*    FAIR      18   1  49 W8        30.52S WCI   7
FRONT ROYAL*   FAIR      18   0  45 NW5       30.51S
LURAY*         FAIR      18   0  45 E3        30.50S
NEW MARKET*    FAIR      14   0  53 S3        30.49F
STAUNTON*      FAIR      17   0  46 CALM      30.51R
WAYNESBORO*    FAIR      12  -5  45 CALM      30.46S

$$

WVZ021-048>050-054>055-141600-
EASTERN WEST VIRGINIA PANHANDLE

CITY           SKY/WX    TMP DP  RH WIND       PRES   REMARKS
MARTINSBURG    FAIR      16  -2  45 NW10      30.53S WCI   4
PETERSBURG*    FAIR      16  -1  48 CALM      30.50S

$$

VAZ036>039-050-141600-
CENTRAL FOOTHILLS

CITY           SKY/WX    TMP DP  RH WIND       PRES   REMARKS
CHARLOTTESVILL FAIR      18  -2  41 NE6       30.53F
CULPEPER*      FAIR      17  -1  46 NW3       30.58S
ORANGE*        FAIR      19   0  42 N6        30.56F
GORDONSVILLE*  FAIR      18  -1  42 NE5       30.54F
WARRENTON*     FAIR      20   3  47 NW6       30.56S

$$

VAZ055>057-141600-
NORTH AND CENTRAL PIEDMONT

CITY           SKY/WX    TMP DP  RH WIND       PRES   REMARKS
FREDERICKSBRG* FAIR      19   0  43 N13       30.58S WCI   6
STAFFORD*      FAIR      19  -3  38 N10G20    30.62S WCI   7

$$

NCZ024-NYZ072-PAZ021-071-VAZ022-071-141600-
OTHER REGIONAL OBSERVATIONS

CITY           SKY/WX    TMP DP  RH WIND       PRES   REMARKS
NEW YORK CITY  SUNNY      2 -19  37 NW7G17    30.55R
PHILADELPHIA   MOSUNNY   13 -13  30 NW14      30.56S WCI  -2
PITTSBURGH     MOSUNNY   10   3  73 CALM      30.45R
ROANOKE        PTSUNNY   15  -4  42 VRB3      30.51S
RICHMOND       FAIR      19  -2  39 N7        30.58S
RALEIGH        PTSUNNY   21  -3  35 NE9       30.56S WCI  11

$$

ANZ530>537-141600-
MARINE OBSERVATIONS

STATION/POSITION TIME  TEMP    WIND        PRES
                       AIR SEA DIR/SP/G
                 (UTC) (F)     (DEG/KT/KT) (MB)
THOMAS PT LIGHT  1500   15 35  340/ 16/ 20 1035.7F
BALT KEY BRIDGE  1400   13     290/  9/ 13 1035.6R
COVE POINT       1400   14     350/ 19/ 26 1035.8S
LEWISETTA        1400   17 31  360/ 10/ 18 1035.3R
SOLOMONS ISLAND  1400   16 36  330/ 13/ 17   N/A
PINEY POINT      1400          360/ 14/ 16   N/A

$$





USA.gov is the U.S. government's official web portal to all federal, state and local government web resources and services.